Terminal Aerodrome Forecast
Issued by NWS Brownsville, TX

Home | Current Version | Previous Version | Text Only | Print | Product List | Glossary On
Versions: 1 2 3 4 5 6 7 8 9 10 11 12 13 14 15 16 17
000
FTUS44 KBRO 232320
TAFHRL
TAF
KHRL 232320Z 2400/2424 10012KT P6SM SCT040
     FM240200 13005KT P6SM SCT020
     FM241700 11010KT P6SM BKN050=

USA.gov is the U.S. government's official web portal to all federal, state and local government web resources and services.